Location: Dehesa de la Cepeda
(40.6574°N, 4.3013°W)
Time: 01:23:38
(UTC+00:00)

Courier 1B - Pass Details

Date: 10 August 2021
Orbit: 963 x 1209 km, 28.3° (Epoch: 17 September)

Event Time Altitude Azimuth Distance (km) Brightness Sun altitude
Rises 14:21:44 0° 213° (SSW) 3,859 11.1 53.9°
Reaches altitude 10° 14:25:30 10° 194° (SSW) 2,955 10.6 53.3°
Maximum altitude 14:29:57 17° 156° (SSE) 2,513 10.0 52.6°
Drops below altitude 10° 14:34:31 10° 119° (ESE) 3,065 10.0 51.8°
Sets 14:38:31 0° 101° (E) 4,065 10.5 51.2°
